KC0KLG Weather Reports


time (UTC)temp
F
wind
direction
speed
knots
gust
knots
rain 1hr
in
rain 24hr
in
rain mn
in
humidity
%
barometer
mb
20260505184546 53 51 3.5 9.6 0.00 0.00 0.00 30 1017.2
20260505184507 53 88 4.3 8.7 0.00 0.00 0.00 30 1015.6
20260505183114 53 355 0.0 11.3 0.00 0.00 0.00 35 1015.6
20260505183110 52 292 0.9 11.3 0.00 0.00 0.00 34 1017.2
20260505181549 52 333 4.3 9.6 0.00 0.00 0.00 33 1017.3
20260505181537 52 355 3.5 9.6 0.00 0.00 0.00 33 1015.5
20260505180049 51 36 4.3 8.7 0.00 0.00 0.00 34 1017.5
20260505180029 51 349 5.2 8.7 0.00 0.00 0.00 35 1015.6
20260505174546 51 102 1.7 10.4 0.00 0.00 0.00 37 1017.3
20260505174519 51 175 2.6 10.4 0.00 0.00 0.00 38 1015.5
20260505173052 52 296 5.2 12.2 0.00 0.00 0.00 36 1017.4
20260505173005 52 327 4.3 12.2 0.00 0.00 0.00 34 1015.7
20260505171602 51 42 1.7 12.2 0.00 0.00 0.00 40 1015.7
20260505171556 50 26 2.6 12.2 0.00 0.00 0.00 40 1017.3
20260505170047 50 324 6.1 10.4 0.00 0.00 0.00 38 1015.6
20260505164546 49 42 4.3 9.6 0.00 0.00 0.00 38 1017.2
20260505164535 49 30 4.3 9.6 0.00 0.00 0.00 38 1015.6
20260505163047 48 54 1.7 7.8 0.00 0.00 0.00 40 1017.2
20260505163027 48 54 1.7 7.8 0.00 0.00 0.00 40 1015.6
20260505161556 48 103 1.7 8.7 0.00 0.00 0.00 40 1017.2
20260505161521 48 101 1.7 8.7 0.00 0.00 0.00 41 1015.6
20260505153053 47 336 1.7 6.1 0.00 0.00 0.00 39 1017.2
20260505153051 47 350 1.7 5.2 0.00 0.00 0.00 40 1015.6
20260505151550 46 49 1.7 7.8 0.00 0.00 0.00 40 1017.3
20260505151540 46 57 1.7 7.8 0.00 0.00 0.00 40 1015.6
20260505124555 44 61 1.7 8.7 0.00 0.00 0.00 42 1014.5
20260505124548 44 26 2.6 8.7 0.00 0.00 0.00 41 1016.3
20260505123046 44 78 1.7 7.8 0.00 0.00 0.00 41 1016.0
20260505123027 44 78 0.9 7.8 0.00 0.00 0.00 42 1014.3
20260505121547 44 40 0.9 6.1 0.00 0.00 0.00 42 1015.7
20260505121526 44 40 0.9 5.2 0.00 0.00 0.00 42 1014.1
20260505120104 44 345 0.9 5.2 0.00 0.00 0.00 42 1015.5
20260505120013 44 26 0.0 4.3 0.00 0.00 0.00 43 1013.9
20260505114554 44 53 0.9 5.2 0.00 0.00 0.00 42 1014.0
20260505114544 44 53 0.0 6.1 0.00 0.00 0.00 42 1015.5
20260505113048 44 63 0.9 7.0 0.00 0.00 0.00 44 1014.0
20260505113045 44 61 1.7 7.0 0.00 0.00 0.00 44 1015.5
20260505111546 43 28 2.6 7.8 0.00 0.00 0.00 46 1015.6
20260505111544 43 26 2.6 7.8 0.00 0.00 0.00 47 1014.0
20260505101549 44 0 0.9 2.6 0.00 0.00 0.00 47 1015.6
20260505101522 44 29 0.9 2.6 0.00 0.00 0.00 47 1014.0
20260505100045 45 101 2.6 5.2 0.00 0.00 0.00 46 1015.6
20260505100016 45 22 2.6 5.2 0.00 0.00 0.00 46 1014.0
20260505094600 45 50 0.9 7.8 0.00 0.00 0.00 46 1013.8
20260505094547 45 51 0.9 7.8 0.00 0.00 0.00 46 1015.5
20260505094502 45 63 0.9 7.8 0.00 0.00 0.00 47 1013.8
20260505093056 45 32 0.9 6.1 0.00 0.00 0.00 46 1013.8
20260505093047 45 32 0.9 6.1 0.00 0.00 0.00 46 1015.5
20260505091550 45 39 1.7 10.4 0.00 0.00 0.00 45 1015.6
20260505091543 45 24 0.9 10.4 0.00 0.00 0.00 45 1013.8
20260505090047 45 42 0.9 4.3 0.00 0.00 0.00 45 1015.6
20260505090041 45 34 0.9 4.3 0.00 0.00 0.00 46 1013.9
20260505084544 46 340 0.9 7.0 0.00 0.00 0.00 45 1015.7
20260505084522 46 340 0.9 7.0 0.00 0.00 0.00 46 1013.9
20260505083049 46 32 2.6 7.0 0.00 0.00 0.00 45 1015.5
20260505083011 46 31 1.7 7.0 0.00 0.00 0.00 45 1013.7
20260505081606 46 34 2.6 7.8 0.00 0.00 0.00 46 1013.5
20260505081546 46 11 2.6 7.8 0.00 0.00 0.00 45 1015.5
20260505081512 46 10 2.6 7.8 0.00 0.00 0.00 46 1013.6
20260505080051 46 327 1.7 4.3 0.00 0.00 0.00 47 1013.6
20260505080046 46 348 1.7 4.3 0.00 0.00 0.00 46 1015.6
20260505074549 46 22 1.7 5.2 0.00 0.00 0.00 46 1013.6
20260505074543 46 46 0.9 6.1 0.00 0.00 0.00 46 1015.6
20260505073058 46 5 0.9 7.8 0.00 0.00 0.00 48 1015.5
20260505073054 46 5 0.0 5.2 0.00 0.00 0.00 48 1013.5
20260505071551 46 39 2.6 8.7 0.00 0.00 0.00 47 1015.5
20260505071530 46 39 3.5 8.7 0.00 0.00 0.00 47 1013.4
20260505070046 46 37 1.7 9.6 0.00 0.00 0.00 48 1015.4
20260505070021 46 23 1.7 9.6 0.00 0.00 0.00 48 1013.3
20260505064546 47 327 1.7 7.0 0.00 0.00 0.00 48 1015.3
20260505064531 47 360 2.6 7.0 0.00 0.00 0.00 48 1013.2
20260505063056 46 55 2.6 9.6 0.00 0.00 0.00 49 1013.2
20260505063044 46 33 2.6 9.6 0.00 0.00 0.00 49 1015.3
20260505061558 46 11 3.5 10.4 0.00 0.00 0.00 50 1013.2
20260505061551 46 60 3.5 10.4 0.00 0.00 0.00 49 1015.4
20260505060050 46 17 2.6 7.0 0.00 0.00 0.00 50 1013.1
20260505060044 46 20 2.6 7.8 0.00 0.00 0.00 49 1015.4
20260505054611 46 29 2.6 6.1 0.00 0.00 0.00 50 1015.6
20260505054558 46 35 2.6 6.1 0.00 0.00 0.00 51 1013.3
20260505053100 46 71 3.5 9.6 0.00 0.00 0.00 50 1015.3
20260505053032 46 75 3.5 9.6 0.00 0.00 0.00 50 1013.0
20260505051546 46 82 5.2 12.2 0.00 0.00 0.00 50 1015.3
20260505051522 46 61 5.2 12.2 0.00 0.00 0.00 50 1013.0
20260505041601 46 68 2.6 8.7 0.00 0.00 0.00 53 1012.8
20260505041555 46 26 2.6 8.7 0.00 0.00 0.00 52 1015.3
20260505040057 47 350 1.7 10.4 0.00 0.00 0.00 52 1012.7
20260505040046 47 67 0.9 10.4 0.00 0.00 0.00 51 1015.1
20260505034548 47 78 1.7 6.1 0.00 0.00 0.00 52 1012.8
20260505034543 47 40 0.9 6.1 0.00 0.00 0.00 52 1015.2
20260505033047 48 70 2.6 9.6 0.00 0.00 0.00 50 1014.9
20260505033038 47 56 4.3 9.6 0.00 0.00 0.00 51 1012.4
20260505031604 48 352 4.3 11.3 0.00 0.00 0.00 50 1014.8
20260505031542 48 355 4.3 11.3 0.00 0.00 0.00 51 1012.3
20260505030047 49 68 3.5 11.3 0.00 0.00 0.00 50 1014.6
20260505030026 49 14 3.5 11.3 0.00 0.00 0.00 51 1012.2
20260505024545 50 5 4.3 13.0 0.00 0.00 0.00 49 1014.4
20260505024530 50 5 4.3 13.0 0.00 0.00 0.00 49 1012.0
20260505023100 51 360 5.2 11.3 0.00 0.00 0.00 48 1014.3
20260505023012 51 55 5.2 10.4 0.00 0.00 0.00 48 1011.8
20260505021558 52 34 5.2 15.6 0.00 0.00 0.00 47 1011.6
20260505021552 52 24 4.3 15.6 0.00 0.00 0.00 47 1014.2
20260505020049 52 38 6.1 13.9 0.00 0.00 0.00 46 1014.0
20260505014547 53 36 6.1 14.8 0.00 0.00 0.00 44 1013.9
20260505014544 53 360 7.0 14.8 0.00 0.00 0.00 45 1011.6
20260505013104 54 15 2.6 11.3 0.00 0.00 0.00 46 1013.9
20260505013036 54 355 3.5 11.3 0.00 0.00 0.00 47 1011.5
20260505011545 55 41 6.1 13.0 0.00 0.00 0.00 43 1014.0
20260505011533 55 24 6.1 13.0 0.00 0.00 0.00 43 1011.5
20260505010049 56 11 7.0 16.5 0.00 0.00 0.00 43 1013.7
20260505010010 56 11 7.0 16.5 0.00 0.00 0.00 43 1011.3
20260505004556 57 49 2.6 10.4 0.00 0.00 0.00 44 1011.1
20260505004552 57 48 3.5 13.9 0.00 0.00 0.00 44 1013.6
20260505003045 57 36 7.0 15.6 0.00 0.00 0.00 43 1011.2
20260505003043 57 316 6.1 15.6 0.00 0.00 0.00 42 1013.7
20260505001552 57 10 6.1 13.9 0.00 0.00 0.00 42 1013.7
20260505001534 57 19 5.2 13.9 0.00 0.00 0.00 43 1011.0
20260505000106 57 58 6.1 13.9 0.00 0.00 0.00 43 1013.6
20260505000035 57 65 7.0 13.9 0.00 0.00 0.00 43 1011.0
20260504234546 57 352 7.0 13.9 0.00 0.00 0.00 42 1013.6
20260504234519 57 346 7.0 13.9 0.00 0.00 0.00 43 1010.9
20260504233051 58 344 7.0 13.9 0.00 0.00 0.00 42 1013.4
20260504233012 58 348 7.8 13.9 0.00 0.00 0.00 43 1010.7
20260504231557 57 32 5.2 12.2 0.00 0.00 0.00 44 1010.8
20260504231546 57 335 5.2 13.9 0.00 0.00 0.00 44 1013.6
20260504230104 57 63 6.1 13.9 0.00 0.00 0.00 43 1010.6
20260504224549 58 26 4.3 11.3 0.00 0.00 0.00 41 1010.7
20260504224544 58 34 3.5 11.3 0.00 0.00 0.00 41 1013.5
20260504223044 58 30 5.2 10.4 0.00 0.00 0.00 41 1013.4
20260504223042 58 19 6.1 10.4 0.00 0.00 0.00 41 1010.7
20260504221558 59 360 4.3 11.3 0.00 0.00 0.00 41 1013.5
20260504221553 59 20 4.3 11.3 0.00 0.00 0.00 41 1010.5
20260504220046 59 351 4.3 11.3 0.00 0.00 0.00 40 1013.5
20260504220037 59 27 5.2 11.3 0.00 0.00 0.00 41 1010.5
20260504214542 58 28 3.5 9.6 0.00 0.00 0.00 41 1013.5
20260504214529 58 22 4.3 9.6 0.00 0.00 0.00 41 1010.5
20260504213050 59 59 6.1 11.3 0.00 0.00 0.00 40 1013.6
20260504213017 59 55 5.2 11.3 0.00 0.00 0.00 40 1010.5
20260504211548 59 10 3.5 10.4 0.00 0.00 0.00 41 1013.5
20260504211515 59 34 3.5 10.4 0.00 0.00 0.00 41 1010.4
20260504210057 58 30 3.5 13.0 0.00 0.00 0.00 44 1010.4
20260504210048 58 63 4.3 13.0 0.00 0.00 0.00 44 1013.5
20260504204600 58 332 4.3 10.4 0.00 0.00 0.00 41 1013.6
20260504204547 58 9 4.3 10.4 0.00 0.00 0.00 42 1010.4
20260504203101 59 66 3.5 9.6 0.00 0.00 0.00 42 1013.4
20260504203049 59 317 2.6 9.6 0.00 0.00 0.00 42 1010.2
20260504201544 58 5 5.2 11.3 0.00 0.00 0.00 41 1013.6
20260504201539 58 17 6.1 11.3 0.00 0.00 0.00 41 1010.5
20260504200050 59 336 5.2 13.0 0.00 0.00 0.00 41 1013.4
20260504200035 59 355 7.0 11.3 0.00 0.00 0.00 41 1010.2
20260504194549 58 13 3.5 10.4 0.00 0.00 0.00 42 1013.6
20260504194533 58 34 3.5 8.7 0.00 0.00 0.00 43 1010.3
20260504193045 58 329 3.5 15.6 0.00 0.00 0.00 42 1013.6
20260504193030 58 327 3.5 15.6 0.00 0.00 0.00 43 1010.3
20260504191602 58 352 4.3 11.3 0.00 0.00 0.00 43 1013.6
20260504191529 58 15 5.2 11.3 0.00 0.00 0.00 43 1010.3
20260504190058 59 329 6.1 12.2 0.00 0.00 0.00 41 1013.7
20260504190020 59 5 6.1 12.2 0.00 0.00 0.00 41 1010.2